Location: Ash Observatory
(39.7321°N, 75.2004°W)
Time: 04:23:25
(UTC-04:00)

ISS - Pass Details

Date: 29 March 2019
Orbit: 408 x 410 km, 51.6° (Epoch: 21 April)

Event Time Altitude Azimuth Distance (km) Brightness Sun altitude
Rises 21:17:27 0° 310° (NW) 2,337 1.4 -22.2°
Reaches altitude 10° 21:20:52 10° 348° (NNW) 1,474 -0.5 -22.8°
Maximum altitude 21:21:55 11° 6° (N) 1,406 -0.9 -23.0°
Enters shadow 21:22:14 11° 12° (NNE) 1,412 -0.9 -23.0°
